Content
SEND FEEDBACK

Daily
Averages
Monthly
Summary
United States of America

DAYTON, WASHINGTON


Home > North America > United States > Washington
Elevation: 1555 feet     Latitude: 46 19N     Longitude: 118 00W

WEATHER
 
SELECT A DAY
Number of Records: 184,891;   Date Range: 1/1/95 - 7/26/14
 
SHARE

PRINT THIS DATA

[ ← Previous Day ]
WEATHER ALMANAC - FEBRUARY 13, 2013
[ Next Day → ]
[ °C ]   °F
Weather ElementAverageHighLow
Temperature47.5 °F52 °F (1:53 pm)39.9 °F (11:53 pm)
Dewpoint35.7 °F37.9 °F (9:53 am)32 °F (11:53 pm)
Humidity64 %73 % (11:53 pm)56 % (4:53 pm)
Barometer30.33 in30.43 in (11:53 pm)30.28 in (4:53 am)
Wind Speed13.5 mph20.7 mph (4:53 am)
Wind Gust27.6 mph (4:53 am)
Weather ElementAverage
Visibility9.9 mi
Wind DirectionSSW (212.2 °)

Weather ElementTotal
Precipitation---
Heating Degree Days19.1 (Base 65)
Averaged from 23 records on February 13, 2013
WEATHER CONDITIONS BREAKOUT
WIND DIRECTION BREAKOUT
WEATHER BY HOUR - FEBRUARY 13, 2013
[ °C ]   °F
Local TimeTemperatureDewpointHumidityBarometerVisibilityWind DirectionWind SpeedGust SpeedPrecipitationEventsConditions
1:53 AM48.0 °F35.1 °F61 %30.29 in10.0 miSSW (200°)17.3 mphClear
2:53 AM48.9 °F36.0 °F61 %30.29 in10.0 miSSW (210°)15.0 mphClear
3:53 AM48.0 °F36.0 °F63 %30.30 in10.0 miSSW (210°)13.8 mph23.0 mphPartly Cloudy
4:53 AM48.0 °F36.0 °F63 %30.28 in10.0 miSSW (200°)20.7 mph27.6 mphClear
5:53 AM46.9 °F36.0 °F66 %30.29 in10.0 miSSW (210°)15.0 mphClear
6:53 AM46.9 °F37.0 °F68 %30.30 in10.0 miSW (220°)10.4 mphClear
7:53 AM48.0 °F37.0 °F66 %30.31 in10.0 miSSW (210°)16.1 mph21.9 mphClear
8:53 AM48.0 °F37.0 °F66 %30.32 in10.0 miSW (220°)16.1 mphClear
9:53 AM48.9 °F37.9 °F66 %30.33 in10.0 miSW (220°)17.3 mphClear
10:53 AM48.9 °F37.9 °F66 %30.34 in10.0 miSW (230°)17.3 mph24.2 mphClear
11:53 AM50.0 °F37.9 °F63 %30.32 in10.0 miSW (230°)15.0 mphClear
12:53 PM51.1 °F37.9 °F61 %30.30 in9.0 miSW (230°)18.4 mphClear
1:53 PM52.0 °F37.9 °F59 %30.29 in8.0 miWSW (250°)17.3 mphClear
2:53 PM52.0 °F37.0 °F57 %30.30 in10.0 miSW (230°)12.7 mphScattered Clouds
3:53 PM52.0 °F37.0 °F57 %30.31 in10.0 miSW (230°)10.4 mphOvercast
4:53 PM51.1 °F36.0 °F56 %30.31 in10.0 miWSW (240°)9.2 mphScattered Clouds
5:53 PM46.9 °F34.0 °F61 %30.33 in10.0 miSW (220°)8.1 mphPartly Cloudy
6:53 PM46.0 °F34.0 °F63 %30.34 in10.0 miSouth (180°)4.6 mphMostly Cloudy
7:53 PM43.0 °F33.1 °F68 %30.36 in10.0 miSSW (200°)8.1 mphMostly Cloudy
8:53 PM43.0 °F33.1 °F68 %30.38 in10.0 miSouth (190°)12.7 mphPartly Cloudy
9:53 PM42.1 °F33.1 °F70 %30.40 in10.0 miSouth (190°)9.2 mphOvercast
10:53 PM42.1 °F33.1 °F70 %30.41 in10.0 miSouth (180°)12.7 mphOvercast
11:53 PM39.9 °F32.0 °F73 %30.43 in10.0 miSouth (180°)12.7 mphPartly Cloudy
Hourly data recorded from KALW, located miles away from Dayton, Washington







STORIES FROM OUR PARTNERS